Location: Prague
(50.0830°N, 14.4670°E)
Time: 08:43:04
(UTC+01:00)

Oscar 11 - Pass Details

Date: 07 December 2021
Orbit: 611 x 625 km, 97.6° (Epoch: 26 January)

Event Time Altitude Azimuth Distance (km) Brightness Sun altitude
Rises 17:44:43 0° 209° (SSW) 2,898 11.2 -15.8°
Reaches altitude 10° 17:47:36 10° 230° (SW) 1,998 10.7 -16.2°
Maximum altitude 17:50:25 17° 271° (W) 1,605 10.2 -16.7°
Drops below altitude 10° 17:53:15 10° 311° (NW) 2,010 10.1 -17.1°
Sets 17:56:11 0° 333° (NNW) 2,923 10.7 -17.6°
